Data supplied by UK-AIR on 31/3/2012
All Data GMT hour ending 
Status: R =Ratified P=Provisional,P*=As supplied
,,Lough Navar,,,,,,,,,,,,,,,,,,,,,,,
Date,time,"PM<sub>10</sub> particulate matter (Hourly measured)",status,unit,"Non-volatile PM<sub>10</sub> (Hourly measured)",status,unit,"Ozone",status,unit,"Volatile PM<sub>10</sub> (Hourly measured)",status,unit
 
01-01-2011,01:00,7,R,ugm-3 (TEOM FDMS),5,R,ugm-3 (TEOM FDMS),14,R,ugm-3,2,R,ugm-3 (TEOM FDMS)
01-01-2011,02:00,11,R,ugm-3 (TEOM FDMS),8,R,ugm-3 (TEOM FDMS),46,R,ugm-3,3,R,ugm-3 (TEOM FDMS)
01-01-2011,03:00,9,R,ugm-3 (TEOM FDMS),6,R,ugm-3 (TEOM FDMS),36,R,ugm-3,3,R,ugm-3 (TEOM FDMS)
01-01-2011,04:00,9,R,ugm-3 (TEOM FDMS),8,R,ugm-3 (TEOM FDMS),44,R,ugm-3,1,R,ugm-3 (TEOM FDMS)
01-01-2011,05:00,10,R,ugm-3 (TEOM FDMS),8,R,ugm-3 (TEOM FDMS),40,R,ugm-3,2,R,ugm-3 (TEOM FDMS)
01-01-2011,06:00,4,R,ugm-3 (TEOM FDMS),3,R,ugm-3 (TEOM FDMS),50,R,ugm-3,1,R,ugm-3 (TEOM FDMS)
01-01-2011,07:00,3,R,ugm-3 (TEOM FDMS),2,R,ugm-3 (TEOM FDMS),54,R,ugm-3,1,R,ugm-3 (TEOM FDMS)
01-01-2011,08:00,3,R,ugm-3 (TEOM FDMS),2,R,ugm-3 (TEOM FDMS),56,R,ugm-3,1,R,ugm-3 (TEOM FDMS)
01-01-2011,09:00,3,R,ugm-3 (TEOM FDMS),3,R,ugm-3 (TEOM FDMS),54,R,ugm-3,0,R,ugm-3 (TEOM FDMS)
01-01-2011,10:00,4,R,ugm-3 (TEOM FDMS),3,R,ugm-3 (TEOM FDMS),56,R,ugm-3,1,R,ugm-3 (TEOM FDMS)
01-01-2011,11:00,5,R,ugm-3 (TEOM FDMS),4,R,ugm-3 (TEOM FDMS),68,R,ugm-3,1,R,ugm-3 (TEOM FDMS)
01-01-2011,12:00,5,R,ugm-3 (TEOM FDMS),4,R,ugm-3 (TEOM FDMS),68,R,ugm-3,1,R,ugm-3 (TEOM FDMS)
01-01-2011,13:00,12,R,ugm-3 (TEOM FDMS),10,R,ugm-3 (TEOM FDMS),68,R,ugm-3,2,R,ugm-3 (TEOM FDMS)
01-01-2011,14:00,13,R,ugm-3 (TEOM FDMS),11,R,ugm-3 (TEOM FDMS),68,R,ugm-3,2,R,ugm-3 (TEOM FDMS)
01-01-2011,15:00,15,R,ugm-3 (TEOM FDMS),12,R,ugm-3 (TEOM FDMS),68,R,ugm-3,3,R,ugm-3 (TEOM FDMS)
01-01-2011,16:00,10,R,ugm-3 (TEOM FDMS),9,R,ugm-3 (TEOM FDMS),68,R,ugm-3,1,R,ugm-3 (TEOM FDMS)
01-01-2011,17:00,11,R,ugm-3 (TEOM FDMS),11,R,ugm-3 (TEOM FDMS),66,R,ugm-3,0,R,ugm-3 (TEOM FDMS)
01-01-2011,18:00,11,R,ugm-3 (TEOM FDMS),10,R,ugm-3 (TEOM FDMS),56,R,ugm-3,1,R,ugm-3 (TEOM FDMS)
01-01-2011,19:00,8,R,ugm-3 (TEOM FDMS),8,R,ugm-3 (TEOM FDMS),52,R,ugm-3,0,R,ugm-3 (TEOM FDMS)
01-01-2011,20:00,10,R,ugm-3 (TEOM FDMS),9,R,ugm-3 (TEOM FDMS),34,R,ugm-3,1,R,ugm-3 (TEOM FDMS)
01-01-2011,21:00,10,R,ugm-3 (TEOM FDMS),8,R,ugm-3 (TEOM FDMS),18,R,ugm-3,2,R,ugm-3 (TEOM FDMS)
01-01-2011,22:00,6,R,ugm-3 (TEOM FDMS),7,R,ugm-3 (TEOM FDMS),12,R,ugm-3,-1,R,ugm-3 (TEOM FDMS)
01-01-2011,23:00,8,R,ugm-3 (TEOM FDMS),7,R,ugm-3 (TEOM FDMS),14,R,ugm-3,1,R,ugm-3 (TEOM FDMS)
01-01-2011,24:00,9,R,ugm-3 (TEOM FDMS),8,R,ugm-3 (TEOM FDMS),42,R,ugm-3,1,R,ugm-3 (TEOM FDMS)
02-01-2011,01:00,8,R,ugm-3 (TEOM FDMS),7,R,ugm-3 (TEOM FDMS),50,R,ugm-3,1,R,ugm-3 (TEOM FDMS)
02-01-2011,02:00,7,R,ugm-3 (TEOM FDMS),6,R,ugm-3 (TEOM FDMS),24,R,ugm-3,1,R,ugm-3 (TEOM FDMS)
02-01-2011,03:00,5,R,ugm-3 (TEOM FDMS),4,R,ugm-3 (TEOM FDMS),24,R,ugm-3,1,R,ugm-3 (TEOM FDMS)
02-01-2011,04:00,2,R,ugm-3 (TEOM FDMS),1,R,ugm-3 (TEOM FDMS),34,R,ugm-3,1,R,ugm-3 (TEOM FDMS)
02-01-2011,05:00,6,R,ugm-3 (TEOM FDMS),3,R,ugm-3 (TEOM FDMS),34,R,ugm-3,3,R,ugm-3 (TEOM FDMS)
02-01-2011,06:00,4,R,ugm-3 (TEOM FDMS),3,R,ugm-3 (TEOM FDMS),30,R,ugm-3,1,R,ugm-3 (TEOM FDMS)
02-01-2011,07:00,5,R,ugm-3 (TEOM FDMS),3,R,ugm-3 (TEOM FDMS),24,R,ugm-3,2,R,ugm-3 (TEOM FDMS)
02-01-2011,08:00,3,R,ugm-3 (TEOM FDMS),2,R,ugm-3 (TEOM FDMS),28,R,ugm-3,1,R,ugm-3 (TEOM FDMS)
02-01-2011,09:00,4,R,ugm-3 (TEOM FDMS),3,R,ugm-3 (TEOM FDMS),24,R,ugm-3,1,R,ugm-3 (TEOM FDMS)
02-01-2011,10:00,8,R,ugm-3 (TEOM FDMS),7,R,ugm-3 (TEOM FDMS),18,R,ugm-3,1,R,ugm-3 (TEOM FDMS)
02-01-2011,11:00,11,R,ugm-3 (TEOM FDMS),10,R,ugm-3 (TEOM FDMS),22,R,ugm-3,1,R,ugm-3 (TEOM FDMS)
02-01-2011,12:00,3,R,ugm-3 (TEOM FDMS),1,R,ugm-3 (TEOM FDMS),66,R,ugm-3,2,R,ugm-3 (TEOM FDMS)
02-01-2011,13:00,4,R,ugm-3 (TEOM FDMS),2,R,ugm-3 (TEOM FDMS),72,R,ugm-3,2,R,ugm-3 (TEOM FDMS)
02-01-2011,14:00,3,R,ugm-3 (TEOM FDMS),2,R,ugm-3 (TEOM FDMS),74,R,ugm-3,1,R,ugm-3 (TEOM FDMS)
02-01-2011,15:00,5,R,ugm-3 (TEOM FDMS),3,R,ugm-3 (TEOM FDMS),72,R,ugm-3,2,R,ugm-3 (TEOM FDMS)
02-01-2011,16:00,6,R,ugm-3 (TEOM FDMS),5,R,ugm-3 (TEOM FDMS),42,R,ugm-3,1,R,ugm-3 (TEOM FDMS)
02-01-2011,17:00,5,R,ugm-3 (TEOM FDMS),4,R,ugm-3 (TEOM FDMS),34,R,ugm-3,1,R,ugm-3 (TEOM FDMS)
02-01-2011,18:00,4,R,ugm-3 (TEOM FDMS),4,R,ugm-3 (TEOM FDMS),32,R,ugm-3,0,R,ugm-3 (TEOM FDMS)
02-01-2011,19:00,9,R,ugm-3 (TEOM FDMS),9,R,ugm-3 (TEOM FDMS),32,R,ugm-3,0,R,ugm-3 (TEOM FDMS)
02-01-2011,20:00,8,R,ugm-3 (TEOM FDMS),6,R,ugm-3 (TEOM FDMS),30,R,ugm-3,2,R,ugm-3 (TEOM FDMS)
02-01-2011,21:00,7,R,ugm-3 (TEOM FDMS),6,R,ugm-3 (TEOM FDMS),24,R,ugm-3,1,R,ugm-3 (TEOM FDMS)
02-01-2011,22:00,6,R,ugm-3 (TEOM FDMS),3,R,ugm-3 (TEOM FDMS),20,R,ugm-3,3,R,ugm-3 (TEOM FDMS)
02-01-2011,23:00,5,R,ugm-3 (TEOM FDMS),4,R,ugm-3 (TEOM FDMS),14,R,ugm-3,1,R,ugm-3 (TEOM FDMS)
02-01-2011,24:00,4,R,ugm-3 (TEOM FDMS),2,R,ugm-3 (TEOM FDMS),12,R,ugm-3,2,R,ugm-3 (TEOM FDMS)
03-01-2011,01:00,1,R,ugm-3 (TEOM FDMS),-1,R,ugm-3 (TEOM FDMS),14,R,ugm-3,2,R,ugm-3 (TEOM FDMS)
03-01-2011,02:00,2,R,ugm-3 (TEOM FDMS),1,R,ugm-3 (TEOM FDMS),18,R,ugm-3,1,R,ugm-3 (TEOM FDMS)
03-01-2011,03:00,3,R,ugm-3 (TEOM FDMS),1,R,ugm-3 (TEOM FDMS),18,R,ugm-3,2,R,ugm-3 (TEOM FDMS)
03-01-2011,04:00,5,R,ugm-3 (TEOM FDMS),2,R,ugm-3 (TEOM FDMS),20,R,ugm-3,3,R,ugm-3 (TEOM FDMS)
03-01-2011,05:00,2,R,ugm-3 (TEOM FDMS),0,R,ugm-3 (TEOM FDMS),20,R,ugm-3,2,R,ugm-3 (TEOM FDMS)
03-01-2011,06:00,4,R,ugm-3 (TEOM FDMS),2,R,ugm-3 (TEOM FDMS),22,R,ugm-3,2,R,ugm-3 (TEOM FDMS)
03-01-2011,07:00,5,R,ugm-3 (TEOM FDMS),3,R,ugm-3 (TEOM FDMS),20,R,ugm-3,2,R,ugm-3 (TEOM FDMS)
03-01-2011,08:00,7,R,ugm-3 (TEOM FDMS),4,R,ugm-3 (TEOM FDMS),28,R,ugm-3,3,R,ugm-3 (TEOM FDMS)
03-01-2011,09:00,7,R,ugm-3 (TEOM FDMS),5,R,ugm-3 (TEOM FDMS),26,R,ugm-3,2,R,ugm-3 (TEOM FDMS)
03-01-2011,10:00,10,R,ugm-3 (TEOM FDMS),7,R,ugm-3 (TEOM FDMS),26,R,ugm-3,3,R,ugm-3 (TEOM FDMS)
03-01-2011,11:00,29,R,ugm-3 (TEOM FDMS),28,R,ugm-3 (TEOM FDMS),32,R,ugm-3,1,R,ugm-3 (TEOM FDMS)
03-01-2011,12:00,8,R,ugm-3 (TEOM FDMS),7,R,ugm-3 (TEOM FDMS),60,R,ugm-3,1,R,ugm-3 (TEOM FDMS)
03-01-2011,13:00,9,R,ugm-3 (TEOM FDMS),6,R,ugm-3 (TEOM FDMS),64,R,ugm-3,3,R,ugm-3 (TEOM FDMS)
03-01-2011,14:00,9,R,ugm-3 (TEOM FDMS),7,R,ugm-3 (TEOM FDMS),66,R,ugm-3,2,R,ugm-3 (TEOM FDMS)
03-01-2011,15:00,9,R,ugm-3 (TEOM FDMS),7,R,ugm-3 (TEOM FDMS),62,R,ugm-3,2,R,ugm-3 (TEOM FDMS)
03-01-2011,16:00,10,R,ugm-3 (TEOM FDMS),7,R,ugm-3 (TEOM FDMS),60,R,ugm-3,3,R,ugm-3 (TEOM FDMS)
03-01-2011,17:00,10,R,ugm-3 (TEOM FDMS),8,R,ugm-3 (TEOM FDMS),56,R,ugm-3,2,R,ugm-3 (TEOM FDMS)
03-01-2011,18:00,10,R,ugm-3 (TEOM FDMS),7,R,ugm-3 (TEOM FDMS),58,R,ugm-3,3,R,ugm-3 (TEOM FDMS)
03-01-2011,19:00,11,R,ugm-3 (TEOM FDMS),9,R,ugm-3 (TEOM FDMS),58,R,ugm-3,2,R,ugm-3 (TEOM FDMS)
03-01-2011,20:00,12,R,ugm-3 (TEOM FDMS),9,R,ugm-3 (TEOM FDMS),58,R,ugm-3,3,R,ugm-3 (TEOM FDMS)
03-01-2011,21:00,11,R,ugm-3 (TEOM FDMS),9,R,ugm-3 (TEOM FDMS),60,R,ugm-3,2,R,ugm-3 (TEOM FDMS)
03-01-2011,22:00,8,R,ugm-3 (TEOM FDMS),7,R,ugm-3 (TEOM FDMS),58,R,ugm-3,1,R,ugm-3 (TEOM FDMS)
03-01-2011,23:00,7,R,ugm-3 (TEOM FDMS),6,R,ugm-3 (TEOM FDMS),58,R,ugm-3,1,R,ugm-3 (TEOM FDMS)
03-01-2011,24:00,8,R,ugm-3 (TEOM FDMS),6,R,ugm-3 (TEOM FDMS),56,R,ugm-3,2,R,ugm-3 (TEOM FDMS)
04-01-2011,01:00,8,R,ugm-3 (TEOM FDMS),5,R,ugm-3 (TEOM FDMS),56,R,ugm-3,3,R,ugm-3 (TEOM FDMS)
04-01-2011,02:00,6,R,ugm-3 (TEOM FDMS),4,R,ugm-3 (TEOM FDMS),54,R,ugm-3,2,R,ugm-3 (TEOM FDMS)
04-01-2011,03:00,9,R,ugm-3 (TEOM FDMS),5,R,ugm-3 (TEOM FDMS),54,R,ugm-3,4,R,ugm-3 (TEOM FDMS)
04-01-2011,04:00,9,R,ugm-3 (TEOM FDMS),5,R,ugm-3 (TEOM FDMS),54,R,ugm-3,4,R,ugm-3 (TEOM FDMS)
04-01-2011,05:00,5,R,ugm-3 (TEOM FDMS),2,R,ugm-3 (TEOM FDMS),54,R,ugm-3,3,R,ugm-3 (TEOM FDMS)
04-01-2011,06:00,5,R,ugm-3 (TEOM FDMS),1,R,ugm-3 (TEOM FDMS),56,R,ugm-3,4,R,ugm-3 (TEOM FDMS)
04-01-2011,07:00,3,R,ugm-3 (TEOM FDMS),1,R,ugm-3 (TEOM FDMS),58,R,ugm-3,2,R,ugm-3 (TEOM FDMS)
04-01-2011,08:00,2,R,ugm-3 (TEOM FDMS),1,R,ugm-3 (TEOM FDMS),62,R,ugm-3,1,R,ugm-3 (TEOM FDMS)
04-01-2011,09:00,0,R,ugm-3 (TEOM FDMS),0,R,ugm-3 (TEOM FDMS),62,R,ugm-3,0,R,ugm-3 (TEOM FDMS)
04-01-2011,10:00,3,R,ugm-3 (TEOM FDMS),1,R,ugm-3 (TEOM FDMS),64,R,ugm-3,2,R,ugm-3 (TEOM FDMS)
04-01-2011,11:00,4,R,ugm-3 (TEOM FDMS),2,R,ugm-3 (TEOM FDMS),64,R,ugm-3,2,R,ugm-3 (TEOM FDMS)
04-01-2011,12:00,4,R,ugm-3 (TEOM FDMS),2,R,ugm-3 (TEOM FDMS),64,R,ugm-3,2,R,ugm-3 (TEOM FDMS)
04-01-2011,13:00,5,R,ugm-3 (TEOM FDMS),2,R,ugm-3 (TEOM FDMS),64,R,ugm-3,3,R,ugm-3 (TEOM FDMS)
04-01-2011,14:00,3,R,ugm-3 (TEOM FDMS),1,R,ugm-3 (TEOM FDMS),66,R,ugm-3,2,R,ugm-3 (TEOM FDMS)
04-01-2011,15:00,2,R,ugm-3 (TEOM FDMS),1,R,ugm-3 (TEOM FDMS),66,R,ugm-3,1,R,ugm-3 (TEOM FDMS)
04-01-2011,16:00,5,R,ugm-3 (TEOM FDMS),1,R,ugm-3 (TEOM FDMS),68,R,ugm-3,4,R,ugm-3 (TEOM FDMS)
04-01-2011,17:00,2,R,ugm-3 (TEOM FDMS),0,R,ugm-3 (TEOM FDMS),74,R,ugm-3,2,R,ugm-3 (TEOM FDMS)
04-01-2011,18:00,0,R,ugm-3 (TEOM FDMS),0,R,ugm-3 (TEOM FDMS),76,R,ugm-3,0,R,ugm-3 (TEOM FDMS)
04-01-2011,19:00,8,R,ugm-3 (TEOM FDMS),5,R,ugm-3 (TEOM FDMS),76,R,ugm-3,3,R,ugm-3 (TEOM FDMS)
04-01-2011,20:00,9,R,ugm-3 (TEOM FDMS),6,R,ugm-3 (TEOM FDMS),78,R,ugm-3,3,R,ugm-3 (TEOM FDMS)
04-01-2011,21:00,5,R,ugm-3 (TEOM FDMS),5,R,ugm-3 (TEOM FDMS),78,R,ugm-3,0,R,ugm-3 (TEOM FDMS)
04-01-2011,22:00,4,R,ugm-3 (TEOM FDMS),6,R,ugm-3 (TEOM FDMS),78,R,ugm-3,-2,R,ugm-3 (TEOM FDMS)
04-01-2011,23:00,4,R,ugm-3 (TEOM FDMS),4,R,ugm-3 (TEOM FDMS),76,R,ugm-3,0,R,ugm-3 (TEOM FDMS)
04-01-2011,24:00,4,R,ugm-3 (TEOM FDMS),2,R,ugm-3 (TEOM FDMS),74,R,ugm-3,2,R,ugm-3 (TEOM FDMS)
05-01-2011,01:00,4,R,ugm-3 (TEOM FDMS),2,R,ugm-3 (TEOM FDMS),70,R,ugm-3,2,R,ugm-3 (TEOM FDMS)
05-01-2011,02:00,5,R,ugm-3 (TEOM FDMS),2,R,ugm-3 (TEOM FDMS),68,R,ugm-3,3,R,ugm-3 (TEOM FDMS)
05-01-2011,03:00,2,R,ugm-3 (TEOM FDMS),-2,R,ugm-3 (TEOM FDMS),64,R,ugm-3,4,R,ugm-3 (TEOM FDMS)
05-01-2011,04:00,4,R,ugm-3 (TEOM FDMS),3,R,ugm-3 (TEOM FDMS),60,R,ugm-3,1,R,ugm-3 (TEOM FDMS)
05-01-2011,05:00,3,R,ugm-3 (TEOM FDMS),1,R,ugm-3 (TEOM FDMS),62,R,ugm-3,2,R,ugm-3 (TEOM FDMS)
05-01-2011,06:00,2,R,ugm-3 (TEOM FDMS),0,R,ugm-3 (TEOM FDMS),66,R,ugm-3,2,R,ugm-3 (TEOM FDMS)
05-01-2011,07:00,2,R,ugm-3 (TEOM FDMS),0,R,ugm-3 (TEOM FDMS),68,R,ugm-3,2,R,ugm-3 (TEOM FDMS)
05-01-2011,08:00,2,R,ugm-3 (TEOM FDMS),3,R,ugm-3 (TEOM FDMS),68,R,ugm-3,-1,R,ugm-3 (TEOM FDMS)
05-01-2011,09:00,3,R,ugm-3 (TEOM FDMS),2,R,ugm-3 (TEOM FDMS),66,R,ugm-3,1,R,ugm-3 (TEOM FDMS)
05-01-2011,10:00,4,R,ugm-3 (TEOM FDMS),2,R,ugm-3 (TEOM FDMS),66,R,ugm-3,2,R,ugm-3 (TEOM FDMS)
05-01-2011,11:00,4,R,ugm-3 (TEOM FDMS),4,R,ugm-3 (TEOM FDMS),66,R,ugm-3,0,R,ugm-3 (TEOM FDMS)
05-01-2011,12:00,3,R,ugm-3 (TEOM FDMS),3,R,ugm-3 (TEOM FDMS),64,R,ugm-3,0,R,ugm-3 (TEOM FDMS)
05-01-2011,13:00,6,R,ugm-3 (TEOM FDMS),4,R,ugm-3 (TEOM FDMS),,,,2,R,ugm-3 (TEOM FDMS)
05-01-2011,14:00,,,,,,,,,,,,
05-01-2011,15:00,,,,,,,,,,,,
05-01-2011,16:00,,,,,,,,,,,,
05-01-2011,17:00,,,,,,,,,,,,
05-01-2011,18:00,,,,,,,30,R,ugm-3,,,
05-01-2011,19:00,,,,,,,30,R,ugm-3,,,
05-01-2011,20:00,20,R,ugm-3 (TEOM FDMS),24,R,ugm-3 (TEOM FDMS),24,R,ugm-3,-4,R,ugm-3 (TEOM FDMS)
05-01-2011,21:00,22,R,ugm-3 (TEOM FDMS),24,R,ugm-3 (TEOM FDMS),20,R,ugm-3,-2,R,ugm-3 (TEOM FDMS)
05-01-2011,22:00,13,R,ugm-3 (TEOM FDMS),15,R,ugm-3 (TEOM FDMS),22,R,ugm-3,-2,R,ugm-3 (TEOM FDMS)
05-01-2011,23:00,9,R,ugm-3 (TEOM FDMS),9,R,ugm-3 (TEOM FDMS),24,R,ugm-3,0,R,ugm-3 (TEOM FDMS)
05-01-2011,24:00,5,R,ugm-3 (TEOM FDMS),6,R,ugm-3 (TEOM FDMS),24,R,ugm-3,-1,R,ugm-3 (TEOM FDMS)
06-01-2011,01:00,3,R,ugm-3 (TEOM FDMS),4,R,ugm-3 (TEOM FDMS),26,R,ugm-3,-1,R,ugm-3 (TEOM FDMS)
06-01-2011,02:00,1,R,ugm-3 (TEOM FDMS),1,R,ugm-3 (TEOM FDMS),26,R,ugm-3,0,R,ugm-3 (TEOM FDMS)
06-01-2011,03:00,3,R,ugm-3 (TEOM FDMS),3,R,ugm-3 (TEOM FDMS),22,R,ugm-3,0,R,ugm-3 (TEOM FDMS)
06-01-2011,04:00,1,R,ugm-3 (TEOM FDMS),3,R,ugm-3 (TEOM FDMS),18,R,ugm-3,-2,R,ugm-3 (TEOM FDMS)
06-01-2011,05:00,3,R,ugm-3 (TEOM FDMS),3,R,ugm-3 (TEOM FDMS),18,R,ugm-3,0,R,ugm-3 (TEOM FDMS)
06-01-2011,06:00,4,R,ugm-3 (TEOM FDMS),3,R,ugm-3 (TEOM FDMS),56,R,ugm-3,1,R,ugm-3 (TEOM FDMS)
06-01-2011,07:00,8,R,ugm-3 (TEOM FDMS),8,R,ugm-3 (TEOM FDMS),68,R,ugm-3,0,R,ugm-3 (TEOM FDMS)
06-01-2011,08:00,6,R,ugm-3 (TEOM FDMS),8,R,ugm-3 (TEOM FDMS),68,R,ugm-3,-2,R,ugm-3 (TEOM FDMS)
06-01-2011,09:00,4,R,ugm-3 (TEOM FDMS),8,R,ugm-3 (TEOM FDMS),72,R,ugm-3,-4,R,ugm-3 (TEOM FDMS)
06-01-2011,10:00,10,R,ugm-3 (TEOM FDMS),12,R,ugm-3 (TEOM FDMS),74,R,ugm-3,-2,R,ugm-3 (TEOM FDMS)
06-01-2011,11:00,11,R,ugm-3 (TEOM FDMS),11,R,ugm-3 (TEOM FDMS),74,R,ugm-3,0,R,ugm-3 (TEOM FDMS)
06-01-2011,12:00,11,R,ugm-3 (TEOM FDMS),10,R,ugm-3 (TEOM FDMS),72,R,ugm-3,1,R,ugm-3 (TEOM FDMS)
06-01-2011,13:00,6,R,ugm-3 (TEOM FDMS),5,R,ugm-3 (TEOM FDMS),78,R,ugm-3,1,R,ugm-3 (TEOM FDMS)
06-01-2011,14:00,9,R,ugm-3 (TEOM FDMS),6,R,ugm-3 (TEOM FDMS),80,R,ugm-3,3,R,ugm-3 (TEOM FDMS)
06-01-2011,15:00,8,R,ugm-3 (TEOM FDMS),7,R,ugm-3 (TEOM FDMS),78,R,ugm-3,1,R,ugm-3 (TEOM FDMS)
06-01-2011,16:00,10,R,ugm-3 (TEOM FDMS),9,R,ugm-3 (TEOM FDMS),54,R,ugm-3,1,R,ugm-3 (TEOM FDMS)
06-01-2011,17:00,8,R,ugm-3 (TEOM FDMS),9,R,ugm-3 (TEOM FDMS),30,R,ugm-3,-1,R,ugm-3 (TEOM FDMS)
06-01-2011,18:00,8,R,ugm-3 (TEOM FDMS),6,R,ugm-3 (TEOM FDMS),26,R,ugm-3,2,R,ugm-3 (TEOM FDMS)
06-01-2011,19:00,12,R,ugm-3 (TEOM FDMS),11,R,ugm-3 (TEOM FDMS),20,R,ugm-3,1,R,ugm-3 (TEOM FDMS)
06-01-2011,20:00,8,R,ugm-3 (TEOM FDMS),8,R,ugm-3 (TEOM FDMS),22,R,ugm-3,0,R,ugm-3 (TEOM FDMS)
06-01-2011,21:00,17,R,ugm-3 (TEOM FDMS),17,R,ugm-3 (TEOM FDMS),20,R,ugm-3,0,R,ugm-3 (TEOM FDMS)
06-01-2011,22:00,35,R,ugm-3 (TEOM FDMS),33,R,ugm-3 (TEOM FDMS),20,R,ugm-3,2,R,ugm-3 (TEOM FDMS)
06-01-2011,23:00,36,R,ugm-3 (TEOM FDMS),32,R,ugm-3 (TEOM FDMS),20,R,ugm-3,4,R,ugm-3 (TEOM FDMS)
06-01-2011,24:00,7,R,ugm-3 (TEOM FDMS),3,R,ugm-3 (TEOM FDMS),18,R,ugm-3,4,R,ugm-3 (TEOM FDMS)
07-01-2011,01:00,2,R,ugm-3 (TEOM FDMS),1,R,ugm-3 (TEOM FDMS),10,R,ugm-3,1,R,ugm-3 (TEOM FDMS)
07-01-2011,02:00,3,R,ugm-3 (TEOM FDMS),0,R,ugm-3 (TEOM FDMS),10,R,ugm-3,3,R,ugm-3 (TEOM FDMS)
07-01-2011,03:00,2,R,ugm-3 (TEOM FDMS),2,R,ugm-3 (TEOM FDMS),10,R,ugm-3,0,R,ugm-3 (TEOM FDMS)
07-01-2011,04:00,1,R,ugm-3 (TEOM FDMS),-1,R,ugm-3 (TEOM FDMS),10,R,ugm-3,2,R,ugm-3 (TEOM FDMS)
07-01-2011,05:00,4,R,ugm-3 (TEOM FDMS),1,R,ugm-3 (TEOM FDMS),10,R,ugm-3,3,R,ugm-3 (TEOM FDMS)
07-01-2011,06:00,6,R,ugm-3 (TEOM FDMS),2,R,ugm-3 (TEOM FDMS),10,R,ugm-3,4,R,ugm-3 (TEOM FDMS)
07-01-2011,07:00,4,R,ugm-3 (TEOM FDMS),1,R,ugm-3 (TEOM FDMS),10,R,ugm-3,3,R,ugm-3 (TEOM FDMS)
07-01-2011,08:00,5,R,ugm-3 (TEOM FDMS),4,R,ugm-3 (TEOM FDMS),10,R,ugm-3,1,R,ugm-3 (TEOM FDMS)
07-01-2011,09:00,7,R,ugm-3 (TEOM FDMS),4,R,ugm-3 (TEOM FDMS),4,R,ugm-3,3,R,ugm-3 (TEOM FDMS)
07-01-2011,10:00,5,R,ugm-3 (TEOM FDMS),5,R,ugm-3 (TEOM FDMS),4,R,ugm-3,0,R,ugm-3 (TEOM FDMS)
07-01-2011,11:00,7,R,ugm-3 (TEOM FDMS),6,R,ugm-3 (TEOM FDMS),12,R,ugm-3,1,R,ugm-3 (TEOM FDMS)
07-01-2011,12:00,7,R,ugm-3 (TEOM FDMS),7,R,ugm-3 (TEOM FDMS),44,R,ugm-3,0,R,ugm-3 (TEOM FDMS)
07-01-2011,13:00,9,R,ugm-3 (TEOM FDMS),6,R,ugm-3 (TEOM FDMS),58,R,ugm-3,3,R,ugm-3 (TEOM FDMS)
07-01-2011,14:00,7,R,ugm-3 (TEOM FDMS),3,R,ugm-3 (TEOM FDMS),64,R,ugm-3,4,R,ugm-3 (TEOM FDMS)
07-01-2011,15:00,6,R,ugm-3 (TEOM FDMS),4,R,ugm-3 (TEOM FDMS),66,R,ugm-3,2,R,ugm-3 (TEOM FDMS)
07-01-2011,16:00,6,R,ugm-3 (TEOM FDMS),4,R,ugm-3 (TEOM FDMS),60,R,ugm-3,2,R,ugm-3 (TEOM FDMS)
07-01-2011,17:00,10,R,ugm-3 (TEOM FDMS),8,R,ugm-3 (TEOM FDMS),56,R,ugm-3,2,R,ugm-3 (TEOM FDMS)
07-01-2011,18:00,10,R,ugm-3 (TEOM FDMS),9,R,ugm-3 (TEOM FDMS),52,R,ugm-3,1,R,ugm-3 (TEOM FDMS)
07-01-2011,19:00,16,R,ugm-3 (TEOM FDMS),15,R,ugm-3 (TEOM FDMS),46,R,ugm-3,1,R,ugm-3 (TEOM FDMS)
07-01-2011,20:00,17,R,ugm-3 (TEOM FDMS),15,R,ugm-3 (TEOM FDMS),50,R,ugm-3,2,R,ugm-3 (TEOM FDMS)
07-01-2011,21:00,14,R,ugm-3 (TEOM FDMS),12,R,ugm-3 (TEOM FDMS),52,R,ugm-3,2,R,ugm-3 (TEOM FDMS)
07-01-2011,22:00,14,R,ugm-3 (TEOM FDMS),13,R,ugm-3 (TEOM FDMS),44,R,ugm-3,1,R,ugm-3 (TEOM FDMS)
07-01-2011,23:00,15,R,ugm-3 (TEOM FDMS),13,R,ugm-3 (TEOM FDMS),34,R,ugm-3,2,R,ugm-3 (TEOM FDMS)
07-01-2011,24:00,7,R,ugm-3 (TEOM FDMS),6,R,ugm-3 (TEOM FDMS),26,R,ugm-3,1,R,ugm-3 (TEOM FDMS)
08-01-2011,01:00,7,R,ugm-3 (TEOM FDMS),5,R,ugm-3 (TEOM FDMS),26,R,ugm-3,2,R,ugm-3 (TEOM FDMS)
08-01-2011,02:00,9,R,ugm-3 (TEOM FDMS),7,R,ugm-3 (TEOM FDMS),26,R,ugm-3,2,R,ugm-3 (TEOM FDMS)
08-01-2011,03:00,8,R,ugm-3 (TEOM FDMS),8,R,ugm-3 (TEOM FDMS),32,R,ugm-3,0,R,ugm-3 (TEOM FDMS)
08-01-2011,04:00,7,R,ugm-3 (TEOM FDMS),6,R,ugm-3 (TEOM FDMS),38,R,ugm-3,1,R,ugm-3 (TEOM FDMS)
08-01-2011,05:00,5,R,ugm-3 (TEOM FDMS),7,R,ugm-3 (TEOM FDMS),58,R,ugm-3,-2,R,ugm-3 (TEOM FDMS)
08-01-2011,06:00,4,R,ugm-3 (TEOM FDMS),6,R,ugm-3 (TEOM FDMS),68,R,ugm-3,-2,R,ugm-3 (TEOM FDMS)
08-01-2011,07:00,6,R,ugm-3 (TEOM FDMS),4,R,ugm-3 (TEOM FDMS),56,R,ugm-3,2,R,ugm-3 (TEOM FDMS)
08-01-2011,08:00,3,R,ugm-3 (TEOM FDMS),2,R,ugm-3 (TEOM FDMS),52,R,ugm-3,1,R,ugm-3 (TEOM FDMS)
08-01-2011,09:00,4,R,ugm-3 (TEOM FDMS),5,R,ugm-3 (TEOM FDMS),60,R,ugm-3,-1,R,ugm-3 (TEOM FDMS)
08-01-2011,10:00,6,R,ugm-3 (TEOM FDMS),5,R,ugm-3 (TEOM FDMS),48,R,ugm-3,1,R,ugm-3 (TEOM FDMS)
08-01-2011,11:00,4,R,ugm-3 (TEOM FDMS),3,R,ugm-3 (TEOM FDMS),62,R,ugm-3,1,R,ugm-3 (TEOM FDMS)
08-01-2011,12:00,0,R,ugm-3 (TEOM FDMS),3,R,ugm-3 (TEOM FDMS),70,R,ugm-3,-3,R,ugm-3 (TEOM FDMS)
08-01-2011,13:00,5,R,ugm-3 (TEOM FDMS),3,R,ugm-3 (TEOM FDMS),64,R,ugm-3,2,R,ugm-3 (TEOM FDMS)
08-01-2011,14:00,4,R,ugm-3 (TEOM FDMS),3,R,ugm-3 (TEOM FDMS),60,R,ugm-3,1,R,ugm-3 (TEOM FDMS)
08-01-2011,15:00,1,R,ugm-3 (TEOM FDMS),3,R,ugm-3 (TEOM FDMS),62,R,ugm-3,-2,R,ugm-3 (TEOM FDMS)
08-01-2011,16:00,5,R,ugm-3 (TEOM FDMS),3,R,ugm-3 (TEOM FDMS),66,R,ugm-3,2,R,ugm-3 (TEOM FDMS)
08-01-2011,17:00,10,R,ugm-3 (TEOM FDMS),7,R,ugm-3 (TEOM FDMS),66,R,ugm-3,3,R,ugm-3 (TEOM FDMS)
08-01-2011,18:00,9,R,ugm-3 (TEOM FDMS),9,R,ugm-3 (TEOM FDMS),68,R,ugm-3,0,R,ugm-3 (TEOM FDMS)
08-01-2011,19:00,4,R,ugm-3 (TEOM FDMS),8,R,ugm-3 (TEOM FDMS),74,R,ugm-3,-4,R,ugm-3 (TEOM FDMS)
08-01-2011,20:00,8,R,ugm-3 (TEOM FDMS),15,R,ugm-3 (TEOM FDMS),74,R,ugm-3,-7,R,ugm-3 (TEOM FDMS)
08-01-2011,21:00,2,R,ugm-3 (TEOM FDMS),6,R,ugm-3 (TEOM FDMS),70,R,ugm-3,-4,R,ugm-3 (TEOM FDMS)
08-01-2011,22:00,11,R,ugm-3 (TEOM FDMS),12,R,ugm-3 (TEOM FDMS),68,R,ugm-3,-1,R,ugm-3 (TEOM FDMS)
08-01-2011,23:00,9,R,ugm-3 (TEOM FDMS),11,R,ugm-3 (TEOM FDMS),68,R,ugm-3,-2,R,ugm-3 (TEOM FDMS)
08-01-2011,24:00,3,R,ugm-3 (TEOM FDMS),6,R,ugm-3 (TEOM FDMS),72,R,ugm-3,-3,R,ugm-3 (TEOM FDMS)
09-01-2011,01:00,7,R,ugm-3 (TEOM FDMS),5,R,ugm-3 (TEOM FDMS),66,R,ugm-3,2,R,ugm-3 (TEOM FDMS)
09-01-2011,02:00,7,R,ugm-3 (TEOM FDMS),7,R,ugm-3 (TEOM FDMS),68,R,ugm-3,0,R,ugm-3 (TEOM FDMS)
09-01-2011,03:00,4,R,ugm-3 (TEOM FDMS),8,R,ugm-3 (TEOM FDMS),72,R,ugm-3,-4,R,ugm-3 (TEOM FDMS)
09-01-2011,04:00,4,R,ugm-3 (TEOM FDMS),3,R,ugm-3 (TEOM FDMS),66,R,ugm-3,1,R,ugm-3 (TEOM FDMS)
09-01-2011,05:00,8,R,ugm-3 (TEOM FDMS),9,R,ugm-3 (TEOM FDMS),58,R,ugm-3,-1,R,ugm-3 (TEOM FDMS)
09-01-2011,06:00,5,R,ugm-3 (TEOM FDMS),7,R,ugm-3 (TEOM FDMS),44,R,ugm-3,-2,R,ugm-3 (TEOM FDMS)
09-01-2011,07:00,8,R,ugm-3 (TEOM FDMS),6,R,ugm-3 (TEOM FDMS),36,R,ugm-3,2,R,ugm-3 (TEOM FDMS)
09-01-2011,08:00,5,R,ugm-3 (TEOM FDMS),4,R,ugm-3 (TEOM FDMS),30,R,ugm-3,1,R,ugm-3 (TEOM FDMS)
09-01-2011,09:00,2,R,ugm-3 (TEOM FDMS),3,R,ugm-3 (TEOM FDMS),36,R,ugm-3,-1,R,ugm-3 (TEOM FDMS)
09-01-2011,10:00,5,R,ugm-3 (TEOM FDMS),5,R,ugm-3 (TEOM FDMS),34,R,ugm-3,0,R,ugm-3 (TEOM FDMS)
09-01-2011,11:00,12,R,ugm-3 (TEOM FDMS),12,R,ugm-3 (TEOM FDMS),38,R,ugm-3,0,R,ugm-3 (TEOM FDMS)
09-01-2011,12:00,5,R,ugm-3 (TEOM FDMS),8,R,ugm-3 (TEOM FDMS),48,R,ugm-3,-3,R,ugm-3 (TEOM FDMS)
09-01-2011,13:00,4,R,ugm-3 (TEOM FDMS),5,R,ugm-3 (TEOM FDMS),54,R,ugm-3,-1,R,ugm-3 (TEOM FDMS)
09-01-2011,14:00,6,R,ugm-3 (TEOM FDMS),5,R,ugm-3 (TEOM FDMS),50,R,ugm-3,1,R,ugm-3 (TEOM FDMS)
09-01-2011,15:00,6,R,ugm-3 (TEOM FDMS),5,R,ugm-3 (TEOM FDMS),50,R,ugm-3,1,R,ugm-3 (TEOM FDMS)
09-01-2011,16:00,5,R,ugm-3 (TEOM FDMS),4,R,ugm-3 (TEOM FDMS),34,R,ugm-3,1,R,ugm-3 (TEOM FDMS)
09-01-2011,17:00,10,R,ugm-3 (TEOM FDMS),8,R,ugm-3 (TEOM FDMS),48,R,ugm-3,2,R,ugm-3 (TEOM FDMS)
09-01-2011,18:00,13,R,ugm-3 (TEOM FDMS),12,R,ugm-3 (TEOM FDMS),52,R,ugm-3,1,R,ugm-3 (TEOM FDMS)
09-01-2011,19:00,16,R,ugm-3 (TEOM FDMS),14,R,ugm-3 (TEOM FDMS),42,R,ugm-3,2,R,ugm-3 (TEOM FDMS)
09-01-2011,20:00,10,R,ugm-3 (TEOM FDMS),10,R,ugm-3 (TEOM FDMS),46,R,ugm-3,0,R,ugm-3 (TEOM FDMS)
09-01-2011,21:00,12,R,ugm-3 (TEOM FDMS),10,R,ugm-3 (TEOM FDMS),48,R,ugm-3,2,R,ugm-3 (TEOM FDMS)
09-01-2011,22:00,12,R,ugm-3 (TEOM FDMS),9,R,ugm-3 (TEOM FDMS),50,R,ugm-3,3,R,ugm-3 (TEOM FDMS)
09-01-2011,23:00,10,R,ugm-3 (TEOM FDMS),8,R,ugm-3 (TEOM FDMS),52,R,ugm-3,2,R,ugm-3 (TEOM FDMS)
09-01-2011,24:00,10,R,ugm-3 (TEOM FDMS),9,R,ugm-3 (TEOM FDMS),50,R,ugm-3,1,R,ugm-3 (TEOM FDMS)
10-01-2011,01:00,10,R,ugm-3 (TEOM FDMS),8,R,ugm-3 (TEOM FDMS),48,R,ugm-3,2,R,ugm-3 (TEOM FDMS)
10-01-2011,02:00,10,R,ugm-3 (TEOM FDMS),6,R,ugm-3 (TEOM FDMS),40,R,ugm-3,4,R,ugm-3 (TEOM FDMS)
10-01-2011,03:00,8,R,ugm-3 (TEOM FDMS),7,R,ugm-3 (TEOM FDMS),36,R,ugm-3,1,R,ugm-3 (TEOM FDMS)
10-01-2011,04:00,7,R,ugm-3 (TEOM FDMS),5,R,ugm-3 (TEOM FDMS),46,R,ugm-3,2,R,ugm-3 (TEOM FDMS)
10-01-2011,05:00,7,R,ugm-3 (TEOM FDMS),4,R,ugm-3 (TEOM FDMS),46,R,ugm-3,3,R,ugm-3 (TEOM FDMS)
10-01-2011,06:00,5,R,ugm-3 (TEOM FDMS),3,R,ugm-3 (TEOM FDMS),50,R,ugm-3,2,R,ugm-3 (TEOM FDMS)
10-01-2011,07:00,5,R,ugm-3 (TEOM FDMS),2,R,ugm-3 (TEOM FDMS),44,R,ugm-3,3,R,ugm-3 (TEOM FDMS)
10-01-2011,08:00,5,R,ugm-3 (TEOM FDMS),4,R,ugm-3 (TEOM FDMS),32,R,ugm-3,1,R,ugm-3 (TEOM FDMS)
10-01-2011,09:00,7,R,ugm-3 (TEOM FDMS),5,R,ugm-3 (TEOM FDMS),42,R,ugm-3,2,R,ugm-3 (TEOM FDMS)
10-01-2011,10:00,6,R,ugm-3 (TEOM FDMS),5,R,ugm-3 (TEOM FDMS),50,R,ugm-3,1,R,ugm-3 (TEOM FDMS)
10-01-2011,11:00,6,R,ugm-3 (TEOM FDMS),4,R,ugm-3 (TEOM FDMS),54,R,ugm-3,2,R,ugm-3 (TEOM FDMS)
10-01-2011,12:00,4,R,ugm-3 (TEOM FDMS),3,R,ugm-3 (TEOM FDMS),50,R,ugm-3,1,R,ugm-3 (TEOM FDMS)
10-01-2011,13:00,3,R,ugm-3 (TEOM FDMS),1,R,ugm-3 (TEOM FDMS),42,R,ugm-3,2,R,ugm-3 (TEOM FDMS)
10-01-2011,14:00,5,R,ugm-3 (TEOM FDMS),1,R,ugm-3 (TEOM FDMS),40,R,ugm-3,4,R,ugm-3 (TEOM FDMS)
10-01-2011,15:00,2,R,ugm-3 (TEOM FDMS),-1,R,ugm-3 (TEOM FDMS),36,R,ugm-3,3,R,ugm-3 (TEOM FDMS)
10-01-2011,16:00,2,R,ugm-3 (TEOM FDMS),1,R,ugm-3 (TEOM FDMS),34,R,ugm-3,1,R,ugm-3 (TEOM FDMS)
10-01-2011,17:00,4,R,ugm-3 (TEOM FDMS),3,R,ugm-3 (TEOM FDMS),34,R,ugm-3,1,R,ugm-3 (TEOM FDMS)
10-01-2011,18:00,6,R,ugm-3 (TEOM FDMS),4,R,ugm-3 (TEOM FDMS),38,R,ugm-3,2,R,ugm-3 (TEOM FDMS)
10-01-2011,19:00,7,R,ugm-3 (TEOM FDMS),6,R,ugm-3 (TEOM FDMS),44,R,ugm-3,1,R,ugm-3 (TEOM FDMS)
10-01-2011,20:00,4,R,ugm-3 (TEOM FDMS),5,R,ugm-3 (TEOM FDMS),48,R,ugm-3,-1,R,ugm-3 (TEOM FDMS)
10-01-2011,21:00,5,R,ugm-3 (TEOM FDMS),6,R,ugm-3 (TEOM FDMS),46,R,ugm-3,-1,R,ugm-3 (TEOM FDMS)
10-01-2011,22:00,7,R,ugm-3 (TEOM FDMS),9,R,ugm-3 (TEOM FDMS),48,R,ugm-3,-2,R,ugm-3 (TEOM FDMS)
10-01-2011,23:00,7,R,ugm-3 (TEOM FDMS),8,R,ugm-3 (TEOM FDMS),56,R,ugm-3,-1,R,ugm-3 (TEOM FDMS)
10-01-2011,24:00,1,R,ugm-3 (TEOM FDMS),5,R,ugm-3 (TEOM FDMS),56,R,ugm-3,-4,R,ugm-3 (TEOM FDMS)
11-01-2011,01:00,3,R,ugm-3 (TEOM FDMS),6,R,ugm-3 (TEOM FDMS),60,R,ugm-3,-3,R,ugm-3 (TEOM FDMS)
11-01-2011,02:00,-2,R,ugm-3 (TEOM FDMS),2,R,ugm-3 (TEOM FDMS),62,R,ugm-3,-4,R,ugm-3 (TEOM FDMS)
11-01-2011,03:00,0,R,ugm-3 (TEOM FDMS),2,R,ugm-3 (TEOM FDMS),56,R,ugm-3,-2,R,ugm-3 (TEOM FDMS)
11-01-2011,04:00,5,R,ugm-3 (TEOM FDMS),7,R,ugm-3 (TEOM FDMS),66,R,ugm-3,-2,R,ugm-3 (TEOM FDMS)
11-01-2011,05:00,2,R,ugm-3 (TEOM FDMS),4,R,ugm-3 (TEOM FDMS),68,R,ugm-3,-2,R,ugm-3 (TEOM FDMS)
11-01-2011,06:00,3,R,ugm-3 (TEOM FDMS),4,R,ugm-3 (TEOM FDMS),54,R,ugm-3,-1,R,ugm-3 (TEOM FDMS)
11-01-2011,07:00,5,R,ugm-3 (TEOM FDMS),4,R,ugm-3 (TEOM FDMS),52,R,ugm-3,1,R,ugm-3 (TEOM FDMS)
11-01-2011,08:00,2,R,ugm-3 (TEOM FDMS),3,R,ugm-3 (TEOM FDMS),38,R,ugm-3,-1,R,ugm-3 (TEOM FDMS)
11-01-2011,09:00,6,R,ugm-3 (TEOM FDMS),5,R,ugm-3 (TEOM FDMS),30,R,ugm-3,1,R,ugm-3 (TEOM FDMS)
11-01-2011,10:00,5,R,ugm-3 (TEOM FDMS),6,R,ugm-3 (TEOM FDMS),22,R,ugm-3,-1,R,ugm-3 (TEOM FDMS)
11-01-2011,11:00,3,R,ugm-3 (TEOM FDMS),3,R,ugm-3 (TEOM FDMS),14,R,ugm-3,0,R,ugm-3 (TEOM FDMS)
11-01-2011,12:00,0,R,ugm-3 (TEOM FDMS),3,R,ugm-3 (TEOM FDMS),22,R,ugm-3,-3,R,ugm-3 (TEOM FDMS)
11-01-2011,13:00,2,R,ugm-3 (TEOM FDMS),2,R,ugm-3 (TEOM FDMS),36,R,ugm-3,0,R,ugm-3 (TEOM FDMS)
11-01-2011,14:00,4,R,ugm-3 (TEOM FDMS),3,R,ugm-3 (TEOM FDMS),24,R,ugm-3,1,R,ugm-3 (TEOM FDMS)